MSR913 OMDB-HECA

Flight info

Callsign MSR913
Flight time N/A
Altitude 34000
Route ANVIX R401 GIDIS G783 ELUDA/N0491F400 G783 RIGIL/N0516F320 G783 TANSU/N0518F280 G783 ASNUR L883 PUSON/N0493F400 L883 KITUB Y511 ELONU G799 PMA V10 PEGUR Z712 WEJ L677 CVO
Aircraft B789/H-SDE1E2E3FGHIJ2J3J4J5M1RWXY/LB1D1

Departure

Time 2026-05-06 14:19
Airport Dubai International Airport (OMDB)

Arrival

Time N/A
Airport Cairo International Airport (HECA)
Time Latitude Longitude Altitude Speed Heading
2026-05-06 13:47 25.25721 55.34816 27 ft 0 kts 260°
2026-05-06 14:01 25.25723 55.34824 27 ft 4 kts 260°
2026-05-06 14:01 25.25727 55.34854 26 ft 4 kts 260°
2026-05-06 14:01 25.25732 55.34883 24 ft 3 kts 260°
2026-05-06 14:02 25.25737 55.34907 25 ft 4 kts 243°
2026-05-06 14:02 25.25748 55.34923 23 ft 4 kts 197°
2026-05-06 14:02 25.25762 55.34922 25 ft 4 kts 141°
2026-05-06 14:02 25.25777 55.34902 27 ft 4 kts 121°
2026-05-06 14:03 25.25789 55.34880 27 ft 1 kts 121°
2026-05-06 14:05 25.25785 55.34887 25 ft 2 kts 121°
2026-05-06 14:05 25.25777 55.34902 27 ft 3 kts 121°
2026-05-06 14:06 25.25762 55.34928 24 ft 5 kts 121°
2026-05-06 14:06 25.25752 55.34966 26 ft 6 kts 89°
2026-05-06 14:06 25.25774 55.35009 27 ft 8 kts 40°
2026-05-06 14:06 25.25829 55.35048 27 ft 11 kts 32°
2026-05-06 14:07 25.25906 55.35100 27 ft 15 kts 31°
2026-05-06 14:07 25.26003 55.35166 27 ft 18 kts 31°
2026-05-06 14:07 25.26104 55.35234 27 ft 16 kts 32°
2026-05-06 14:07 25.26120 55.35315 28 ft 12 kts 113°
2026-05-06 14:08 25.26074 55.35404 27 ft 14 kts 122°
2026-05-06 14:08 25.26019 55.35501 27 ft 15 kts 122°
2026-05-06 14:08 25.26000 55.35536 27 ft 0 kts 122°
2026-05-06 14:11 25.25999 55.35537 27 ft 1 kts 122°
2026-05-06 14:11 25.25992 55.35549 27 ft 3 kts 122°
2026-05-06 14:12 25.25974 55.35582 27 ft 7 kts 122°
2026-05-06 14:12 25.25943 55.35636 27 ft 10 kts 122°
2026-05-06 14:12 25.25901 55.35711 27 ft 13 kts 122°
2026-05-06 14:12 25.25851 55.35800 27 ft 14 kts 122°
2026-05-06 14:13 25.25799 55.35894 28 ft 15 kts 121°
2026-05-06 14:13 25.25745 55.35991 28 ft 15 kts 121°
2026-05-06 14:13 25.25687 55.36093 28 ft 16 kts 122°
2026-05-06 14:13 25.25627 55.36198 28 ft 16 kts 121°
2026-05-06 14:14 25.25567 55.36306 28 ft 17 kts 121°
2026-05-06 14:14 25.25505 55.36417 28 ft 16 kts 122°
2026-05-06 14:14 25.25443 55.36526 28 ft 17 kts 122°
2026-05-06 14:14 25.25379 55.36641 27 ft 18 kts 121°
2026-05-06 14:15 25.25313 55.36760 27 ft 18 kts 122°
2026-05-06 14:15 25.25245 55.36879 27 ft 18 kts 122°
2026-05-06 14:15 25.25177 55.36999 28 ft 18 kts 122°
2026-05-06 14:15 25.25112 55.37114 29 ft 18 kts 121°
2026-05-06 14:16 25.25049 55.37227 29 ft 17 kts 121°
2026-05-06 14:16 25.24987 55.37337 29 ft 16 kts 122°
2026-05-06 14:16 25.24928 55.37441 29 ft 16 kts 122°
2026-05-06 14:16 25.24887 55.37514 29 ft 17 kts 122°
2026-05-06 14:17 25.24822 55.37629 28 ft 18 kts 122°
2026-05-06 14:17 25.24755 55.37748 28 ft 19 kts 122°
2026-05-06 14:17 25.24692 55.37861 28 ft 16 kts 122°
2026-05-06 14:17 25.24680 55.37960 28 ft 12 kts 50°
2026-05-06 14:18 25.24741 55.38007 30 ft 10 kts 33°
2026-05-06 14:18 25.24797 55.38023 30 ft 7 kts 343°
2026-05-06 14:18 25.24831 55.37982 30 ft 11 kts 301°
2026-05-06 14:18 25.24940 55.37785 31 ft 58 kts 302°
2026-05-06 14:19 25.25274 55.37183 32 ft 124 kts 302°
2026-05-06 14:19 25.25838 55.36184 53 ft 177 kts 301°
2026-05-06 14:19 25.26460 55.35010 825 ft 168 kts 301°
2026-05-06 14:19 25.27090 55.33859 1527 ft 182 kts 303°
2026-05-06 14:20 25.27782 55.32653 2306 ft 187 kts 301°
2026-05-06 14:20 25.28469 55.31426 3186 ft 190 kts 300°
2026-05-06 14:20 25.29137 55.30151 4022 ft 194 kts 292°
2026-05-06 14:20 25.29191 55.28688 4716 ft 202 kts 255°
2026-05-06 14:21 25.28653 55.27183 5027 ft 214 kts 243°
2026-05-06 14:21 25.27975 55.25712 5322 ft 223 kts 241°
2026-05-06 14:21 25.27303 55.24189 6340 ft 220 kts 242°
2026-05-06 14:21 25.26644 55.22631 6911 ft 226 kts 242°
2026-05-06 14:22 25.25974 55.21042 6997 ft 230 kts 243°
2026-05-06 14:22 25.25264 55.19370 6991 ft 249 kts 243°
2026-05-06 14:22 25.24329 55.17782 6975 ft 247 kts 216°
2026-05-06 14:22 25.22832 55.16872 6995 ft 249 kts 191°
2026-05-06 14:23 25.21085 55.16781 7017 ft 255 kts 177°
2026-05-06 14:23 25.19358 55.17164 7016 ft 256 kts 151°
2026-05-06 14:23 25.17955 55.18369 7028 ft 264 kts 128°
2026-05-06 14:23 25.17007 55.20162 7033 ft 275 kts 119°
2026-05-06 14:24 25.16117 55.22043 7073 ft 276 kts 118°
2026-05-06 14:24 25.15262 55.23865 7517 ft 273 kts 118°
2026-05-06 14:24 25.14358 55.25742 7976 ft 280 kts 119°
2026-05-06 14:24 25.13405 55.27711 8472 ft 299 kts 119°
2026-05-06 14:25 25.12432 55.29733 9188 ft 290 kts 119°
2026-05-06 14:25 25.11518 55.31638 10562 ft 281 kts 118°
2026-05-06 14:25 25.10604 55.33597 11303 ft 294 kts 112°
2026-05-06 14:25 25.09813 55.35688 12271 ft 296 kts 115°
2026-05-06 14:26 25.08897 55.37766 13109 ft 306 kts 115°
2026-05-06 14:26 25.07976 55.39915 13927 ft 314 kts 113°
2026-05-06 14:26 25.07102 55.42139 14711 ft 320 kts 109°
2026-05-06 14:26 25.06257 55.44501 15004 ft 346 kts 112°
2026-05-06 14:27 25.05217 55.47048 14922 ft 382 kts 113°
2026-05-06 14:27 25.04128 55.49769 14856 ft 399 kts 112°
2026-05-06 14:27 25.03055 55.52604 14797 ft 402 kts 111°
2026-05-06 14:27 25.01957 55.55437 14791 ft 400 kts 116°
2026-05-06 14:28 25.00528 55.58081 14793 ft 403 kts 120°
2026-05-06 14:28 24.99088 55.60735 14803 ft 403 kts 120°
2026-05-06 14:28 24.97661 55.63403 14804 ft 403 kts 120°
2026-05-06 14:28 24.96229 55.66063 14804 ft 403 kts 120°
2026-05-06 14:29 24.94784 55.68727 14802 ft 403 kts 120°
2026-05-06 14:29 24.93217 55.71285 14808 ft 403 kts 127°
2026-05-06 14:29 24.91551 55.73768 14808 ft 404 kts 125°
2026-05-06 14:29 24.89917 55.76291 14807 ft 403 kts 124°
2026-05-06 14:30 24.88298 55.78753 14806 ft 403 kts 126°
2026-05-06 14:30 24.86631 55.81243 14807 ft 403 kts 126°
2026-05-06 14:30 24.84974 55.83730 14817 ft 402 kts 127°
2026-05-06 14:30 24.83328 55.86213 14818 ft 402 kts 127°
2026-05-06 14:31 24.81656 55.88686 14816 ft 401 kts 127°
2026-05-06 14:31 24.79848 55.91005 14822 ft 401 kts 139°
2026-05-06 14:31 24.77519 55.92687 14829 ft 400 kts 156°
2026-05-06 14:31 24.74861 55.93554 14828 ft 400 kts 173°
2026-05-06 14:32 24.72119 55.93639 14825 ft 399 kts 181°
2026-05-06 14:32 24.69337 55.93581 14825 ft 400 kts 181°
2026-05-06 14:32 24.66550 55.93492 14836 ft 400 kts 181°
2026-05-06 14:32 24.63765 55.93416 14833 ft 399 kts 181°
2026-05-06 14:33 24.61020 55.93011 14838 ft 404 kts 196°
2026-05-06 14:33 24.58436 55.91701 14833 ft 410 kts 213°
2026-05-06 14:33 24.56230 55.89738 14839 ft 408 kts 220°
2026-05-06 14:33 24.54095 55.87668 14829 ft 411 kts 221°
2026-05-06 14:34 24.51966 55.85578 14825 ft 408 kts 221°
2026-05-06 14:34 24.49837 55.83529 14824 ft 407 kts 220°
2026-05-06 14:34 24.47691 55.81483 14825 ft 409 kts 220°
2026-05-06 14:34 24.45574 55.79451 14821 ft 409 kts 221°
2026-05-06 14:35 24.43435 55.77385 14813 ft 411 kts 220°
2026-05-06 14:35 24.41283 55.75316 14818 ft 411 kts 220°
2026-05-06 14:35 24.39132 55.73253 14817 ft 411 kts 220°
2026-05-06 14:35 24.36970 55.71180 14815 ft 412 kts 220°
2026-05-06 14:36 24.34814 55.69110 14815 ft 411 kts 220°
2026-05-06 14:36 24.32663 55.67045 14814 ft 411 kts 220°
2026-05-06 14:36 24.30513 55.64985 14813 ft 410 kts 220°
2026-05-06 14:36 24.28360 55.62921 14814 ft 411 kts 220°
2026-05-06 14:37 24.26121 55.61042 14814 ft 411 kts 208°
2026-05-06 14:37 24.23492 55.59877 14821 ft 406 kts 194°
2026-05-06 14:37 24.20750 55.59054 14812 ft 407 kts 194°
2026-05-06 14:37 24.18012 55.58251 14813 ft 408 kts 194°
2026-05-06 14:38 24.15270 55.57440 14811 ft 408 kts 194°
2026-05-06 14:38 24.12536 55.56615 14810 ft 408 kts 194°
2026-05-06 14:38 24.09794 55.55789 14814 ft 409 kts 194°
2026-05-06 14:38 24.07055 55.54974 14811 ft 407 kts 194°
2026-05-06 14:39 24.04309 55.54157 14812 ft 408 kts 194°
2026-05-06 14:39 24.01584 55.53342 14811 ft 406 kts 194°
2026-05-06 14:39 23.98845 55.52523 14811 ft 409 kts 194°
2026-05-06 14:39 23.96108 55.51710 14809 ft 408 kts 194°
2026-05-06 14:40 23.93362 55.50898 14811 ft 408 kts 194°
2026-05-06 14:40 23.90623 55.50086 14810 ft 407 kts 194°
2026-05-06 14:40 23.87885 55.49271 14810 ft 408 kts 194°
2026-05-06 14:40 23.85175 55.48467 14807 ft 407 kts 194°
2026-05-06 14:41 23.82441 55.47655 14808 ft 408 kts 194°
2026-05-06 14:41 23.79703 55.46842 14799 ft 407 kts 194°
2026-05-06 14:41 23.76963 55.46027 14797 ft 409 kts 194°
2026-05-06 14:41 23.74226 55.45216 14799 ft 407 kts 194°
2026-05-06 14:42 23.71489 55.44403 14801 ft 408 kts 194°
2026-05-06 14:42 23.68752 55.43591 14794 ft 407 kts 194°
2026-05-06 14:42 23.66009 55.42778 14796 ft 408 kts 194°
2026-05-06 14:42 23.63268 55.41966 14793 ft 407 kts 194°
2026-05-06 14:43 23.60519 55.41153 14797 ft 409 kts 194°
2026-05-06 14:43 23.57772 55.40340 14798 ft 408 kts 194°
2026-05-06 14:43 23.55035 55.39529 14797 ft 408 kts 194°
2026-05-06 14:43 23.52324 55.38728 14795 ft 407 kts 194°
2026-05-06 14:44 23.49591 55.37919 14794 ft 408 kts 194°
2026-05-06 14:44 23.46846 55.37107 14795 ft 408 kts 194°
2026-05-06 14:44 23.44099 55.36295 14785 ft 409 kts 194°
2026-05-06 14:45 23.38599 55.34669 14792 ft 410 kts 194°
2026-05-06 14:45 23.35845 55.33857 14793 ft 409 kts 194°
2026-05-06 14:45 23.33090 55.33043 14793 ft 408 kts 194°
2026-05-06 14:45 23.30343 55.32233 14793 ft 410 kts 194°
2026-05-06 14:46 23.27590 55.31420 14794 ft 410 kts 194°
2026-05-06 14:46 23.24823 55.30606 14789 ft 411 kts 194°
2026-05-06 14:46 23.22077 55.29796 14788 ft 409 kts 194°
2026-05-06 14:46 23.19355 55.28995 14789 ft 408 kts 194°
2026-05-06 14:47 23.16620 55.28189 14787 ft 409 kts 194°
2026-05-06 14:47 23.13860 55.27377 14792 ft 410 kts 194°